Location: Arborea
(39.7744°N, 8.5819°E)
Time: 22:01:55
(UTC+00:00)

Cosmos 1892 - Pass Details

Date: 24 October 2021
Orbit: 501 x 522 km, 82.5° (Epoch: 06 December)

Event Time Altitude Azimuth Distance (km) Brightness Sun altitude
Rises 17:12:16 0° 13° (NNE) 2,610 6.0 -8.1°
Reaches altitude 10° 17:15:22 10° 42° (NE) 1,717 4.9 -8.7°
Maximum altitude 17:17:15 13° 72° (ENE) 1,513 4.4 -9.1°
Enters shadow 17:18:11 12° 88° (E) 1,563 4.5 -9.2°
